User: anonymous   Login
Location: Unspecified
(0.0000°N, 0.0000°E)
Time: 20:40:21
(UTC+00:00)
Language:

GONETS M 09 (M19) - Orbit

View from above orbital plane
View from above orbital plane
View from above satellite
View from above satellite

Ground track
Ground track

The orbit data is extracted from the following two-line orbital elements,

1 40062U 14036B   17172.67437772 +.00000010 +00000-0 +00000-0 0  9998
2 40062 082.5090 186.3302 0023413 111.5510 248.8071 12.42885807134674
Epoch (UTC): 21 June 2017 16:11:06
Eccentricity: 0.0023413
inclination: 82.5090°
perigee height: 1476 km
apogee height: 1513 km
right ascension of ascending node: 186.3302°
argument of perigee: 111.5510°
revolutions per day: 12.42885807
mean anomaly at epoch: 248.8071°
orbit number at epoch: 13467

The dashed part of the orbit path shows where the satellite is in the earth's shadow,  

DLR